• In Hungary
  • List of Countries
  • For 7 days
  • Water Temperature
  • Satellite Maps
  • Weather Map
  • News
  • Weather Widgets
  • user-avatar
    Login

    Hourly Weather Surprise

    Today, 19 June, Tuesday

    Time Temperature Precipitation Wind Pressure Humidity
    00:00 +31°C° 0 mm 2 mps 728 mmHg 22%
    01:00 +31°C° 0 mm 2 mps 727 mmHg 24%
    02:00 +30°C° 0 mm 1 mps 727 mmHg 26%
    03:00 +29°C° 0 mm 1 mps 728 mmHg 26%
    04:00 +29°C° 0 mm 1 mps 728 mmHg 26%
    05:00 +28°C° 0 mm 2 mps 728 mmHg 24%
    06:00 +29°C° 0 mm 2 mps 728 mmHg 22%
    07:00 +30°C° 0 mm 1 mps 728 mmHg 20%
    08:00 +31°C° 0 mm 1 mps 728 mmHg 17%
    09:00 +32°C° 0 mm 1 mps 728 mmHg 15%
    10:00 +35°C° 0 mm 2 mps 728 mmHg 13%
    11:00 +36°C° 0 mm 2 mps 728 mmHg 11%
    12:00 +37°C° 0 mm 3 mps 728 mmHg 10%
    13:00 +38°C° 0 mm 3 mps 728 mmHg 9%
    14:00 +40°C° 0 mm 4 mps 728 mmHg 7%
    15:00 +40°C° 0 mm 4 mps 727 mmHg 7%
    16:00 +41°C° 0 mm 4 mps 727 mmHg 7%
    17:00 +41°C° 0 mm 4 mps 727 mmHg 6%
    18:00 +40°C° 0 mm 4 mps 727 mmHg 7%
    19:00 +38°C° 0 mm 3 mps 727 mmHg 8%
    20:00 +37°C° 0 mm 3 mps 727 mmHg 8%
    21:00 +36°C° 0 mm 3 mps 727 mmHg 10%
    22:00 +35°C° 0 mm 2 mps 728 mmHg 11%
    23:00 +34°C° 0 mm 2 mps 728 mmHg 13%

    Tomorrow, 20 June, Wednesday

    Time Temperature Precipitation Wind Pressure Humidity
    00:00 +34°C° 0 mm 2 mps 728 mmHg 14%
    01:00 +32°C° 0 mm 1 mps 728 mmHg 16%
    02:00 +31°C° 0 mm 1 mps 728 mmHg 18%
    03:00 +30°C° 0 mm 1 mps 728 mmHg 19%
    04:00 +30°C° 0 mm 1 mps 728 mmHg 20%
    05:00 +29°C° 0 mm 1 mps 728 mmHg 21%
    06:00 +31°C° 0 mm 1 mps 728 mmHg 19%
    07:00 +32°C° 0 mm 1 mps 728 mmHg 17%
    08:00 +33°C° 0 mm 1 mps 728 mmHg 16%
    09:00 +35°C° 0 mm 1 mps 728 mmHg 14%
    10:00 +36°C° 0 mm 1 mps 728 mmHg 12%
    11:00 +39°C° 0 mm 1 mps 728 mmHg 10%
    12:00 +40°C° 0 mm 2 mps 728 mmHg 10%
    13:00 +43°C° 0 mm 3 mps 727 mmHg 9%
    14:00 +44°C° 0 mm 3 mps 727 mmHg 8%
    15:00 +44°C° 0 mm 4 mps 727 mmHg 8%
    16:00 +45°C° 0 mm 4 mps 726 mmHg 7%
    17:00 +46°C° 0 mm 5 mps 726 mmHg 7%
    18:00 +45°C° 0 mm 5 mps 726 mmHg 8%
    19:00 +43°C° 0 mm 4 mps 726 mmHg 9%
    20:00 +42°C° 0 mm 4 mps 726 mmHg 9%
    21:00 +41°C° 0 mm 4 mps 726 mmHg 11%
    22:00 +40°C° 0 mm 4 mps 727 mmHg 12%
    23:00 +37°C° 0 mm 4 mps 727 mmHg 13%

    Day after tomorrow, 21 June, Thursday

    Time Temperature Precipitation Wind Pressure Humidity
    00:00 +36°C° 0 mm 3 mps 727 mmHg 14%
    01:00 +35°C° 0 mm 3 mps 727 mmHg 15%
    02:00 +35°C° 0 mm 2 mps 727 mmHg 16%
    03:00 +34°C° 0 mm 2 mps 727 mmHg 16%
    04:00 +32°C° 0 mm 2 mps 727 mmHg 17%
    05:00 +31°C° 0 mm 1 mps 727 mmHg 18%
    06:00 +33°C° 0 mm 1 mps 727 mmHg 16%
    07:00 +34°C° 0 mm 1 mps 728 mmHg 15%
    08:00 +35°C° 0 mm 1 mps 728 mmHg 13%
    09:00 +37°C° 0 mm 1 mps 728 mmHg 12%
    10:00 +39°C° 0 mm 1 mps 728 mmHg 11%
    11:00 +41°C° 0 mm 1 mps 728 mmHg 10%
    12:00 +42°C° 0 mm 2 mps 728 mmHg 9%
    13:00 +44°C° 0 mm 3 mps 727 mmHg 9%
    14:00 +47°C° 0 mm 4 mps 727 mmHg 8%
    15:00 +47°C° 0 mm 4 mps 727 mmHg 8%
    16:00 +47°C° 0 mm 5 mps 726 mmHg 7%
    17:00 +48°C° 0 mm 5 mps 725 mmHg 7%
    18:00 +47°C° 0 mm 5 mps 726 mmHg 8%
    19:00 +45°C° 0 mm 5 mps 726 mmHg 8%
    20:00 +43°C° 0 mm 4 mps 726 mmHg 9%
    21:00 +42°C° 0 mm 4 mps 726 mmHg 10%
    22:00 +41°C° 0 mm 4 mps 727 mmHg 11%
    23:00 +39°C° 0 mm 3 mps 727 mmHg 12%

    22 June, Friday

    Time Temperature Precipitation Wind Pressure Humidity
    00:00 +38°C° 0 mm 3 mps 727 mmHg 13%
    01:00 +37°C° 0 mm 2 mps 726 mmHg 14%
    02:00 +36°C° 0 mm 2 mps 726 mmHg 15%
    03:00 +35°C° 0 mm 2 mps 726 mmHg 16%
    04:00 +34°C° 0 mm 1 mps 726 mmHg 16%
    05:00 +33°C° 0 mm 1 mps 726 mmHg 17%
    06:00 +34°C° 0 mm 1 mps 726 mmHg 15%
    07:00 +36°C° 0 mm 1 mps 726 mmHg 14%
    08:00 +37°C° 0 mm 1 mps 727 mmHg 12%
    09:00 +40°C° 0 mm 1 mps 727 mmHg 11%
    10:00 +41°C° 0 mm 2 mps 727 mmHg 10%
    11:00 +43°C° 0 mm 2 mps 727 mmHg 9%
    12:00 +45°C° 0 mm 4 mps 726 mmHg 8%
    13:00 +47°C° 0 mm 5 mps 726 mmHg 7%
    14:00 +48°C° 0 mm 6 mps 725 mmHg 5%
    15:00 +48°C° 0 mm 6 mps 725 mmHg 5%
    16:00 +48°C° 0 mm 6 mps 725 mmHg 4%
    17:00 +48°C° 0 mm 6 mps 724 mmHg 4%
    18:00 +46°C° 0 mm 6 mps 724 mmHg 5%
    19:00 +45°C° 0 mm 5 mps 724 mmHg 6%
    20:00 +43°C° 0 mm 4 mps 725 mmHg 7%
    21:00 +41°C° 0 mm 4 mps 725 mmHg 9%
    22:00 +40°C° 0 mm 4 mps 725 mmHg 11%
    23:00 +38°C° 0 mm 3 mps 725 mmHg 13%

    23 June, Saturday

    Time Temperature Precipitation Wind Pressure Humidity
    00:00 +37°C° 0 mm 3 mps 725 mmHg 15%
    01:00 +36°C° 0 mm 2 mps 725 mmHg 17%
    02:00 +35°C° 0 mm 2 mps 725 mmHg 19%
    03:00 +34°C° 0 mm 2 mps 725 mmHg 21%
    04:00 +32°C° 0 mm 2 mps 725 mmHg 22%
    05:00 +31°C° 0 mm 2 mps 725 mmHg 24%
    06:00 +32°C° 0 mm 2 mps 725 mmHg 25%
    07:00 +34°C° 0 mm 3 mps 726 mmHg 25%
    08:00 +34°C° 0 mm 3 mps 726 mmHg 26%
    09:00 +35°C° 0 mm 4 mps 726 mmHg 24%
    10:00 +37°C° 0 mm 4 mps 726 mmHg 23%
    11:00 +39°C° 0 mm 5 mps 726 mmHg 21%
    12:00 +40°C° 0 mm 5 mps 726 mmHg 20%
    13:00 +41°C° 0 mm 5 mps 726 mmHg 18%
    14:00 +42°C° 0 mm 6 mps 725 mmHg 16%
    15:00 +44°C° 0 mm 6 mps 725 mmHg 17%
    16:00 +44°C° 0 mm 7 mps 725 mmHg 17%
    17:00 +44°C° 0 mm 8 mps 724 mmHg 18%
    18:00 +43°C° 0 mm 7 mps 724 mmHg 19%
    19:00 +40°C° 0 mm 7 mps 725 mmHg 20%
    20:00 +39°C° 0 mm 7 mps 725 mmHg 21%
    21:00 +38°C° 0 mm 6 mps 725 mmHg 20%
    22:00 +36°C° 0 mm 5 mps 726 mmHg 20%
    23:00 +34°C° 0 mm 4 mps 726 mmHg 20%

    24 June, Sunday

    Time Temperature Precipitation Wind Pressure Humidity
    00:00 +34°C° 0 mm 3 mps 726 mmHg 22%
    01:00 +32°C° 0 mm 2 mps 726 mmHg 25%
    02:00 +31°C° 0 mm 1 mps 726 mmHg 27%
    03:00 +30°C° 0 mm 1 mps 726 mmHg 29%
    04:00 +30°C° 0 mm 1 mps 726 mmHg 31%
    05:00 +29°C° 0 mm 1 mps 727 mmHg 33%
    06:00 +30°C° 0 mm 1 mps 727 mmHg 31%
    07:00 +31°C° 0 mm 2 mps 728 mmHg 30%
    08:00 +33°C° 0 mm 3 mps 728 mmHg 28%
    09:00 +34°C° 0 mm 3 mps 728 mmHg 26%
    10:00 +36°C° 0 mm 4 mps 728 mmHg 24%
    11:00 +37°C° 0 mm 4 mps 728 mmHg 22%
    12:00 +39°C° 0 mm 5 mps 728 mmHg 20%
    13:00 +40°C° 0 mm 5 mps 727 mmHg 18%
    14:00 +41°C° 0 mm 5 mps 727 mmHg 15%
    15:00 +41°C° 0 mm 6 mps 727 mmHg 15%
    16:00 +41°C° 0 mm 6 mps 727 mmHg 15%
    17:00 +42°C° 0 mm 6 mps 726 mmHg 14%
    18:00 +41°C° 0 mm 6 mps 726 mmHg 16%
    19:00 +39°C° 0 mm 5 mps 726 mmHg 17%
    20:00 +37°C° 0 mm 5 mps 727 mmHg 19%
    21:00 +36°C° 0 mm 4 mps 727 mmHg 20%
    22:00 +35°C° 0 mm 3 mps 727 mmHg 21%
    23:00 +34°C° 0 mm 2 mps 727 mmHg 22%
    Show more